Location: Byszew
(52.1813°N, 19.2693°E)
Time: 21:36:09
(UTC+00:00)

Cosmos 2341 Rocket - Pass Details

Date: 03 March 2021
Orbit: 968 x 1005 km, 82.9° (Epoch: 15 April)

Event Time Altitude Azimuth Distance (km) Brightness Sun altitude
Rises 18:30:39 0° 193° (SSW) 3,698 7.0 -19.7°
Reaches altitude 10° 18:33:11 10° 195° (SSW) 2,748 6.3 -20.1°
Maximum altitude 18:39:29 77° 281° (W) 1,015 4.1 -21.0°
Drops below altitude 10° 18:45:47 10° 8° (N) 2,741 6.5 -21.9°
Sets 18:48:19 0° 10° (N) 3,688 7.1 -22.3°
